Regional Weather Roundup
Issued by NWS

Home | Current Version | Previous Version | Text Only | Print | Product List | Glossary On
Versions: 1 2 3 4 5 6 7 8 9 10 11 12 13 14 15 16 17 18 19 20 21 22 23 24 25 26 27 28 29 30 31 32 33 34 35 36 37 38 39 40 41 42 43 44 45 46 47 48 49 50
000
ASUS44 KJAN 282010
RWRMS

MISSISSIPPI HOURLY WEATHER ROUNDUP
NATIONAL WEATHER SERVICE JACKSON MS
300 PM CDT MON JUL 28 2014

NOTE: "FAIR: INDICATES FEW OR NO CLOUDS BELOW 12,000 FEET WITH NO
SIGNIFICANT WEATHER AND/OR OBSTRUCTIONS TO VISIBILITY.

MSZ001>002-007>008-010>013-018>021-025>028-034>036-282100-
NORTHWEST MISSISSIPPI

CITY           SKY/WX    TMP DP  RH WIND       PRES   REMARKS
CLARKSDALE     FAIR      84  66  54 NW12      30.05F
CLEVELAND      FAIR      84  69  59 NW14      30.05S
GREENWOOD      MOSUNNY   87  67  51 NW10      30.03F HX  90
GREENVILLE     SUNNY     89  66  46 N9        30.04F HX  91
GRENADA        FAIR      86  63  45 NW8G17    30.03S
OLIVE BRANCH   MOSUNNY   82  64  54 N12       30.05F
OXFORD         FAIR      84  63  48 NW12      30.06S
TUNICA         CLEAR     84  61  45 N10G17    30.06S
$$

MSZ003>006-009-014>017-022>024-029>033-037>039-282100-
NORTHEAST MISSISSIPPI

CITY           SKY/WX    TMP DP  RH WIND       PRES   REMARKS
BELMONT        FAIR      81  62  51 NW7       30.02F
COLUMBUS AFB   MOSUNNY   88  63  43 NW16      30.00S
CORINTH        FAIR      82  61  47 N8G17     30.03S
GOLDN TRIANGLE MOSUNNY   90  68  48 NW8       30.00F HX  93
STARKVILLE     FAIR      88  64  45 NW6       30.00F
TUPELO         MOSUNNY   85  61  44 N14       30.01F
$$

MSZ040-058-282100-
CENTRAL MISSISSIPPI

CITY           SKY/WX    TMP DP  RH WIND       PRES   REMARKS
JACKSON INTL   MOSUNNY   92  69  47 NW7       30.02F HX  97
JACKSON HAWKNS SUNNY     91  66  43 N8        30.03F HX  93
MERIDIAN KEY   PTSUNNY   93  73  52 NW10G17   29.97F HX 102
MERIDIAN NAS   MOSUNNY   94  67  41 NW13      29.97F HX  97
RAYMOND        FAIR      90  84  84 NW8       30.03S HX 115
VICKSBURG      SUNNY     91  68  46 N6        30.03F HX  95
$$

MSZ059>079-282100-
SOUTH MISSISSIPPI

CITY           SKY/WX    TMP DP  RH WIND       PRES   REMARKS
BROOKHAVEN     FAIR      90  75  62 W10       30.05F HX 100
COLUMBIA       FAIR      91  77  62 W12G21    30.00F HX 105
HATTIESBURG    MOSUNNY   94  74  52 W16       30.00F HX 104
MCCOMB         PTSUNNY   89  75  63 W9        30.03F HX  99
NATCHEZ        PTSUNNY   88  79  74 N7        30.04F HX 102
PINE BELT      MOSUNNY   91  73  55 NW9       30.02F HX 100
$$

MSZ080>082-282100-
COASTAL MISSISSIPPI

CITY           SKY/WX    TMP DP  RH WIND       PRES   REMARKS
BAY ST LOUIS   MOSUNNY  N/A N/A N/A N5        30.00F
BILOXI         MOSUNNY   90  80  71 SW17      29.98F HX 107
PASCAGOULA     MOSUNNY   90  78  68 W7G17     29.98F HX 104
GULFPORT       MOSUNNY   97  73  45 W14       29.98F HX 107
$$


USA.gov is the U.S. government's official web portal to all federal, state and local government web resources and services.